Simultaneous Nadir Overpasses (SNOs) Predictions

Prediction of SNOs between NOAA-20 and LANDSAT-8 Satellite Orbit:

Table of predicted SNOs for the next 14.0 days since TLE Epoch: 5/2/2020
Index Date (NOAA-20) Time (NOAA-20) Lat,Lon (NOAA-20) SZA (NOAA-20 ) Date (LANDSAT-8) Time (LANDSAT-8) Lat,Lon (LANDSAT-8) SZA (LANDSAT-8 ) Distance(km) Time Diff (sec)
1 05/02/2020 05:42:21 -70.85, -90.34 124.73 05/02/2020 05:43:30 -70.77, -88.73 124.85 59.25 69
2 05/02/2020 06:32:55 70.20, 78.01 54.59 05/02/2020 06:33:06 70.17, 78.03 54.56 3.27 11
3 05/02/2020 07:23:36 -70.07,-114.47 125.56 05/02/2020 07:22:36 -70.07,-114.49 125.56 0.99 60
4 05/04/2020 21:59:04 -70.24, 26.42 126.14 05/04/2020 22:00:07 -70.26, 26.38 126.13 2.52 63
5 05/04/2020 22:49:49 70.17,-166.17 53.78 05/04/2020 22:49:34 70.14,-166.14 53.75 3.03 15
6 05/04/2020 23:40:22 -69.61, 1.98 126.81 05/04/2020 23:39:11 -69.66, 0.82 126.74 45.47 71
7 05/07/2020 14:15:58 -70.20, 142.24 126.93 05/07/2020 14:16:35 -70.23, 142.21 126.91 2.91 37
8 05/07/2020 15:06:42 70.08, -50.27 52.95 05/07/2020 15:06:02 70.11, -50.30 52.98 3.23 40
9 05/10/2020 05:42:17 70.68, 89.93 52.87 05/10/2020 05:43:27 70.57, 90.96 52.73 39.85 70
10 05/10/2020 06:32:51 -70.17,-101.94 127.67 05/10/2020 06:33:02 -70.19,-101.96 127.65 2.76 11
11 05/10/2020 07:23:35 70.05, 65.54 52.20 05/10/2020 07:22:29 70.07, 65.52 52.23 2.31 66
12 05/12/2020 21:59:03 70.23,-153.58 51.73 05/12/2020 22:00:00 70.25,-153.63 51.74 2.68 57
13 05/12/2020 22:49:45 -70.14, 13.88 128.38 05/12/2020 22:49:30 -70.15, 13.87 128.37 2.00 15
14 05/12/2020 23:40:16 69.34,-177.63 50.79 05/12/2020 23:39:08 69.42,-179.49 50.92 73.50 68
15 05/15/2020 14:15:57 70.20, -37.77 51.06 05/15/2020 14:16:28 70.21, -37.81 51.06 1.47 31
16 05/15/2020 15:06:39 -70.11, 129.70 129.05 05/15/2020 15:05:58 -70.11, 129.68 129.05 0.70 41




NCC Satellite Simultaneous Nadir Overpasses (SNOs) Prediction Service
